TimeCST,TemperatureF,Dew PointF,Humidity,Sea Level PressureIn,VisibilityMPH,Wind Direction,Wind SpeedMPH,Gust SpeedMPH,PrecipitationIn,Events,Conditions,WindDirDegrees,DateUTC
12:55 AM,43.5,32.0,64,30.35,10.0,NNE,4.6,-,N/A,,Clear,30,2013-01-05 06:55:00
1:55 AM,42.4,32.4,68,30.34,10.0,NE,6.9,-,N/A,,Clear,50,2013-01-05 07:55:00
2:55 AM,43.3,31.6,63,30.34,10.0,ENE,6.9,-,N/A,,Clear,60,2013-01-05 08:55:00
3:55 AM,43.3,31.8,64,30.32,10.0,NE,8.1,-,N/A,,Clear,50,2013-01-05 09:55:00
4:55 AM,43.3,31.3,62,30.33,10.0,NE,6.9,-,N/A,,Clear,50,2013-01-05 10:55:00
5:55 AM,43.9,30.6,59,30.32,10.0,NE,9.2,-,N/A,,Clear,50,2013-01-05 11:55:00
6:55 AM,44.6,30.6,58,30.34,10.0,ENE,5.8,-,N/A,,Mostly Cloudy,70,2013-01-05 12:55:00
7:55 AM,45.1,31.1,58,30.36,10.0,ENE,5.8,-,N/A,,Partly Cloudy,60,2013-01-05 13:55:00
8:55 AM,45.9,32.5,60,30.38,10.0,NNE,6.9,-,N/A,,Clear,20,2013-01-05 14:55:00
9:55 AM,46.9,32.0,56,30.37,10.0,NNE,5.8,-,N/A,,Clear,30,2013-01-05 15:55:00
11:55 AM,50.7,33.1,51,30.31,10.0,NE,5.8,-,N/A,,Mostly Cloudy,50,2013-01-05 17:55:00
12:55 PM,51.6,34.5,52,30.29,10.0,NE,4.6,-,N/A,,Scattered Clouds,40,2013-01-05 18:55:00
1:55 PM,51.4,36.5,57,30.29,10.0,NNE,5.8,-,N/A,,Mostly Cloudy,20,2013-01-05 19:55:00
2:55 PM,51.6,37.6,59,30.29,10.0,NNE,8.1,-,N/A,,Scattered Clouds,30,2013-01-05 20:55:00
3:55 PM,51.1,37.6,60,30.28,10.0,NE,10.4,-,N/A,,Mostly Cloudy,50,2013-01-05 21:55:00
4:55 PM,50.2,38.3,64,30.29,10.0,NNE,9.2,-,N/A,,Overcast,30,2013-01-05 22:55:00
5:55 PM,49.8,38.1,64,30.28,10.0,NNE,9.2,-,N/A,,Overcast,30,2013-01-05 23:55:00
6:55 PM,50.0,37.6,62,30.30,10.0,NE,9.2,-,N/A,,Overcast,40,2013-01-06 00:55:00
7:55 PM,50.0,37.0,61,30.28,10.0,NE,10.4,-,N/A,,Overcast,40,2013-01-06 01:55:00
8:55 PM,50.2,35.8,58,30.27,10.0,NE,9.2,-,N/A,,Overcast,40,2013-01-06 02:55:00
9:55 PM,50.2,36.0,58,30.27,10.0,NE,8.1,-,N/A,,Overcast,50,2013-01-06 03:55:00
10:55 PM,50.2,36.5,59,30.26,10.0,NE,5.8,-,N/A,,Overcast,50,2013-01-06 04:55:00
11:55 PM,50.5,36.1,58,30.25,10.0,ENE,8.1,-,N/A,,Overcast,60,2013-01-06 05:55:00